SCP
1 1 1 1 1 1 1 1 1 1 1 1 1 1 1 1 1 1 1 1 1 1 1 1 2 2 2 2 1 1 1 2 2 1 1 1 1 1 1 1 1 1 0
1 1 1 1 1 1 1 0 0 1 1 1 1 1 1 1 1 1 1 1 1 1 1 1 1 2 2 2 2 1 1 1 1 1 1 1 1 1 1 1 1 1 1
1 1 1 1 1 1 1 0 0 0 1 1 1 1 1 1 1 1 1 1 1 1 1 1 1 2 2 2 2 1 1 1 1 1 1 1 1 1 1 1 1 1 1
1 1 1 1 1 1 1 0 0 0 0 1 1 1 1 1 1 1 1 1 1 1 1 1 1 2 2 2 2 1 1 1 1 1 1 1 1 1 1 1 1 1 1
1 1 1 2 3 2 1 1 1 1 0 1 1 1 1 1 1 1 1 0 0 0 1 1 1 1 2 2 2 2 1 1 1 1 1 1 1 1 1 1 1 1 1
1 1 1 3 5 3 1 1 1 1 0 1 1 1 1 1 1 0 0 0 0 0 0 0 1 1 1 2 2 2 2 1 1 1 1 1 1 1 1 1 1 1 1
1 1 1 2 3 2 1 1 1 1 1 1 1 1 1 1 0 0 0 0 0 0 0 0 0 1 1 2 2 2 2 1 1 1 1 1 1 1 1 1 1 1 1
1 1 1 1 1 1 1 1 1 1 1 1 1 1 1 1 0 0 0 0 0 0 0 0 0 0 1 1 1 1 1 2 2 2 2 2 1 1 1 1 1 1 1
1 1 1 1 1 1 1 1 1 1 1 1 1 1 1 1 0 0 0 0 0 0 0 0 0 0 0 0 1 1 1 1 1 1 1 1 1 1 1 1 1 1 1
1 1 1 1 1 1 1 1 1 1 1 1 1 1 1 1 0 0 0 0 0 0 0 0 0 0 0 0 1 1 1 1 1 1 1 1 1 1 1 1 1 1 1
1 1 1 1 1 1 1 1 1 1 1 1 1 1 1 1 0 0 0 0 0 0 0 0 0 0 0 0 1 1 1 1 1 1 1 1 1 1 1 1 1 1 1
1 1 1 1 1 1 1 0 1 1 1 1 1 1 1 1 1 0 0 0 0 0 0 0 0 0 0 0 1 1 1 1 1 0 0 1 1 1 1 1 2 1 1
1 1 1 1 1 0 0 0 0 1 1 1 1 1 1 1 1 0 0 0 0 0 0 0 0 0 0 0 1 1 1 1 0 0 0 0 0 1 1 2 2 2 1
0 0 0 0 0 0 0 0 0 0 1 1 1 1 1 1 1 1 0 0 0 0 0 0 0 0 0 0 1 0 0 0 0 0 0 0 0 0 1 1 2 2 1
0 0 0 0 0 0 0 0 0 0 0 1 1 1 1 1 1 1 0 0 0 0 0 0 0 0 0 0 0 0 0 0 0 0 0 0 0 0 0 1 2 1 1
0 0 0 0 0 0 0 0 0 0 0 0 1 1 1 1 1 1 0 0 0 0 0 0 0 0 0 0 0 0 0 0 0 0 0 0 0 0 0 1 1 1 1
0 0 0 0 0 0 0 0 0 0 0 0 0 0 0 0 0 0 0 0 0 0 0 0 0 0 0 0 0 0 0 0 0 0 0 0 0 0 0 0 1 0 0
0 0 0 0 0 0 0 0 0 0 0 0 0 0 0 0 0 0 0 0 0 0 0 0 0 0 0 0 0 0 0 0 0 0 0 0 0 0 0 0 0 0 0
0 0 0 0 0 0 0 0 0 0 0 0 0 0 0 0 0 0 0 0 0 0 0 0 0 0 0 0 0 0 0 0 0 0 0 0 0 0 0 0 0 0 0
0 0 0 0 0 0 0 0 0 0 0 0 0 0 0 0 0 0 0 0 0 0 0 0 0 0 0 0 0 0 0 0 0 0 0 0 0 0 0 0 0 0 0
0 0 0 0 0 0 0 0 0 0 0 0 0 0 0 0 0 0 0 0 0 0 0 0 0 0 0 0 0 0 0 0 0 0 0 0 0 0 0 0 0 0 0
0 0 0 0 0 0 0 0 0 0 0 0 0 0 0 0 0 0 0 0 0 0 0 0 0 0 0 0 0 0 0 0 0 0 0 0 0 0 0 0 0 0 0
0 0 0 0 0 0 0 0 0 0 0 0 0 0 0 0 0 0 0 0 0 0 0 0 0 0 0 0 0 0 0 0 0 0 0 0 0 0 0 0 0 0 0
0 0 0 0 0 0 0 0 0 0 0 0 0 0 0 0 0 0 0 0 0 0 0 0 0 0 0 0 0 0 0 0 0 0 0 0 0 0 0 0 0 0 0
0 0 0 0 0 0 0 0 0 0 0 0 0 0 0 0 0 0 0 0 0 0 0 0 0 0 0 0 0 0 0 0 0 0 0 0 0 0 0 0 0 0 0
0 0 0 0 0 0 0 0 0 0 0 0 0 0 0 0 0 0 0 0 0 0 0 0 0 0 0 0 0 0 0 0 0 0 0 0 0 0 0 0 0 0 0
Wind_Speed
1 1 1 1 2 2 2 2 2 2 2 2 2 2 2 2 2 2 2 6 6 6 7 8 8 9 10 11 12 12 12 13 13 13 13 13 13 13 12 12 12 12 11
1 1 1 1 2 2 2 1 1 1 1 2 2 2 2 2 2 2 2 4 6 6 6 6 7 8 8 9 10 10 10 11 12 13 13 13 13 13 13 13 13 12 12
1 1 1 1 2 2 2 1 2 2 2 2 2 3 2 3 3 3 2 2 3 4 5 5 5 6 6 7 8 8 8 9 10 11 12 12 12 13 13 13 13 12 12
2 1 1 2 2 2 2 1 2 2 2 2 2 3 2 3 3 3 2 2 2 2 4 7 6 5 4 4 5 6 7 8 9 9 9 9 10 10 11 12 12 12 12
3 2 1 2 2 2 2 2 1 1 2 2 2 2 2 3 3 3 3 3 3 3 3 5 7 7 6 5 4 3 4 5 7 8 9 9 9 9 10 10 11 11 11
3 2 2 3 3 2 2 2 2 1 1 2 2 2 2 2 2 3 3 3 3 4 4 5 4 5 8 7 6 5 4 2 3 5 7 8 8 9 9 10 10 10 10
3 2 2 2 2 2 2 2 1 1 1 1 1 2 2 2 2 2 3 3 4 5 5 5 4 3 3 7 7 7 6 5 3 2 5 6 6 6 7 9 10 10 10
3 2 2 2 2 2 2 2 1 1 1 1 1 0 1 2 2 3 3 3 4 4 5 5 5 4 3 3 5 8 8 7 6 3 1 1 3 4 5 5 7 8 9
3 3 2 2 2 2 1 2 1 1 1 1 0 0 0 1 1 2 3 3 4 4 4 4 4 5 4 3 3 6 7 7 6 4 3 1 1 2 3 3 4 6 7
3 3 3 3 2 2 2 2 2 1 0 1 1 1 1 1 1 1 1 2 3 4 4 4 4 4 4 3 4 6 7 7 6 6 4 3 1 1 2 2 3 4 5
3 4 3 3 3 2 2 2 2 1 0 1 1 1 0 0 1 1 1 1 2 3 3 3 3 3 4 4 3 5 6 6 6 6 5 5 2 1 1 2 2 2 3
3 4 4 3 3 2 2 2 2 1 1 1 1 1 1 1 1 1 1 1 2 2 3 2 2 2 3 3 4 6 6 6 6 6 6 6 4 2 2 1 1 1 2
2 4 4 3 3 3 2 2 2 2 1 1 1 1 1 1 1 1 1 1 1 1 2 1 2 2 2 2 3 6 6 6 6 6 6 6 6 4 3 3 2 2 1
2 3 3 3 3 3 3 2 1 2 2 2 2 1 1 1 1 1 1 1 0 1 1 1 1 2 2 2 3 4 4 5 6 5 6 6 6 5 5 4 3 3 2
2 3 3 3 3 3 3 3 2 2 2 2 2 2 1 1 1 1 1 2 2 1 1 1 1 1 2 2 3 2 2 4 5 5 5 5 5 5 5 5 5 4 3
2 3 3 3 3 4 4 3 2 2 3 2 2 2 2 1 1 0 1 1 1 2 1 1 1 1 2 2 2 2 2 4 4 4 4 4 4 4 4 4 4 4 3
2 3 3 3 3 3 3 3 3 3 3 3 3 2 2 2 1 1 0 1 1 1 2 1 1 1 2 2 2 1 1 1 1 3 3 3 3 3 3 4 4 4 4
2 2 2 3 3 3 3 3 3 4 3 3 3 3 3 2 2 1 0 0 1 2 2 2 1 1 1 2 2 2 1 1 1 1 2 2 3 3 3 3 3 3 3
3 3 3 3 4 3 3 3 3 3 3 3 3 3 3 2 2 1 1 0 1 1 2 2 1 1 1 1 1 1 1 1 1 1 1 1 2 2 2 2 1 1 2
3 3 3 3 3 3 3 3 3 3 3 3 3 3 3 2 2 1 1 1 0 1 1 2 1 0 1 1 0 1 1 2 2 2 2 2 2 3 2 2 1 1 1
3 3 3 4 4 3 3 4 3 3 3 4 4 4 3 3 3 2 1 1 0 1 1 2 1 0 0 0 0 0 1 1 1 1 1 1 1 1 1 2 1 1 1
3 3 3 3 4 4 5 5 3 2 3 3 4 4 4 4 4 4 3 2 0 1 2 2 1 2 2 1 1 1 1 1 1 1 1 1 1 1 1 1 1 2 2
2 3 3 3 4 4 5 5 5 2 2 2 3 3 3 3 4 3 3 4 3 2 1 2 2 2 2 2 2 1 1 0 1 1 1 1 1 1 2 1 2 3 3
1 2 3 3 3 4 5 4 5 3 2 3 3 2 2 3 3 3 2 3 3 2 1 0 1 2 2 2 3 2 2 1 1 1 1 1 1 1 2 2 3 3 3
1 2 2 3 3 5 5 5 4 2 2 3 3 3 2 3 5 4 2 2 3 3 3 2 1 0 1 2 3 3 2 1 0 1 1 1 1 1 2 2 2 3 4
1 2 3 3 3 4 5 4 3 1 2 3 3 3 3 3 4 3 1 1 2 2 3 3 3 3 2 1 2 3 2 2 1 1 1 1 1 1 2 2 2 2 3
Wind_Direction
17 7 15 4 359 357 346 334 343 344 337 336 341 327 320 319 310 300 295 296 298 291 279 268 254 241 234 228 226 226 225 222 219 216 213 214 215 215 212 213 211 209 209
21 15 14 8 359 343 325 319 329 335 333 347 346 338 315 308 314 311 299 305 310 306 301 290 274 260 247 239 233 230 227 226 225 223 219 217 217 217 214 214 213 210 209
26 30 24 11 351 336 331 342 0 1 6 7 346 332 327 328 328 320 316 316 320 326 336 334 315 285 263 255 245 235 228 226 225 224 223 222 220 218 216 212 211 211 210
37 49 34 7 349 348 360 2 16 6 7 1 345 336 350 353 351 349 -0 6 3 360 360 2 355 345 323 289 263 251 239 230 225 224 222 221 219 216 215 212 209 210 211
40 62 44 3 5 12 13 3 24 21 2 354 338 355 11 13 5 14 26 23 23 23 21 15 16 14 13 12 2 320 266 242 231 226 225 226 223 219 216 214 213 211 211
34 40 36 13 15 15 6 4 4 11 352 338 349 16 16 10 13 22 22 25 29 34 33 28 17 15 20 17 15 5 349 303 244 230 231 227 223 217 212 212 212 211 210
30 35 22 14 14 14 356 1 359 7 2 2 20 5 5 14 22 21 24 31 33 34 35 32 23 16 11 19 19 18 14 12 354 263 245 234 223 211 210 213 210 209 209
19 26 24 9 4 12 9 7 12 8 331 360 29 359 343 350 14 18 23 33 34 31 30 26 23 23 19 13 17 21 20 14 11 5 320 233 205 202 208 214 214 212 212
19 23 23 19 8 18 350 340 355 12 309 309 3 127 191 257 323 357 19 30 32 31 24 17 21 20 16 12 6 14 17 17 14 17 30 51 155 185 187 205 213 218 221
13 19 24 26 19 13 357 339 10 342 319 302 318 332 253 202 208 306 355 16 20 28 23 15 10 9 9 3 6 17 20 18 16 17 23 36 76 175 182 198 213 221 223
8 13 15 16 13 2 351 353 355 353 309 264 265 258 261 286 206 195 263 330 2 13 14 7 3 3 3 357 350 16 27 24 20 21 27 28 30 88 162 186 197 207 212
359 5 8 7 1 355 349 344 344 348 341 306 283 257 228 213 218 199 220 284 326 341 351 359 6 1 356 354 4 24 29 29 27 30 33 32 34 48 84 120 154 185 205
349 345 357 353 349 347 348 3 11 4 2 354 320 294 267 244 213 211 192 225 296 323 341 351 351 349 352 357 7 24 33 35 33 33 34 35 38 47 63 79 82 90 77
314 327 345 347 346 354 4 13 14 -0 16 10 1 341 296 278 230 205 191 183 244 325 330 295 318 339 341 346 0 13 27 34 34 33 32 33 38 50 59 67 73 82 85
331 347 354 355 355 4 7 11 17 2 9 6 353 344 324 310 288 234 204 194 191 237 288 274 286 320 325 335 346 359 15 22 28 33 32 36 40 48 54 62 70 71 76
355 356 360 0 4 11 12 18 12 0 10 355 351 4 356 335 328 275 191 200 201 204 231 254 269 286 301 319 352 356 358 10 19 23 27 34 40 40 43 54 69 71 74
7 7 2 5 10 11 9 13 3 359 6 359 0 9 355 346 350 348 195 185 187 187 208 269 278 277 278 308 327 330 331 344 3 16 17 30 39 38 43 54 63 65 67
6 3 7 13 11 9 4 7 1 358 360 359 352 357 351 352 358 346 324 227 205 195 186 208 264 277 292 295 303 317 335 343 320 3 12 28 38 40 46 53 63 68 67
8 12 21 17 8 1 358 358 356 353 356 352 347 350 339 345 346 345 335 282 234 192 181 171 213 275 295 302 325 338 356 354 336 356 34 42 45 39 38 49 57 62 67
20 17 17 10 0 355 358 357 358 353 351 352 352 347 337 334 328 338 337 313 200 134 137 146 161 228 280 286 280 338 357 13 355 5 26 29 43 40 36 34 38 46 63
20 17 17 7 359 355 355 356 357 1 354 354 357 350 342 347 354 357 342 323 122 138 141 147 157 196 247 231 212 304 27 355 350 4 360 3 10 8 13 21 23 13 334
7 12 14 3 357 352 353 0 5 3 354 356 351 345 347 357 1 6 16 19 98 169 169 167 186 201 229 219 183 159 119 29 342 7 0 346 9 334 318 292 289 289 285
10 4 359 360 347 335 349 1 7 11 356 351 342 341 352 2 5 6 11 22 30 44 153 175 187 209 207 196 176 160 142 161 266 324 354 337 354 317 302 285 272 270 269
356 343 344 342 334 334 350 357 2 14 1 344 336 328 331 339 350 354 5 25 23 15 14 149 206 228 219 201 184 170 149 126 291 270 228 288 324 307 314 302 281 267 268
336 331 318 326 330 329 344 350 359 6 351 335 329 333 327 326 331 344 16 24 17 9 25 49 60 15 210 205 179 152 151 133 353 316 185 223 292 312 301 293 290 272 268
306 324 326 322 316 317 330 342 350 359 341 332 331 331 331 327 326 333 8 40 14 349 5 13 25 26 41 76 170 182 179 168 195 269 195 197 260 308 305 285 288 290 279